Regional Weather Roundup
Issued by NWS

Home | Current Version | Previous Version | Text Only | Print | Product List | Glossary On
Versions: 1 2 3 4 5 6 7 8 9 10 11 12 13 14 15 16 17 18 19 20 21 22 23 24 25 26 27 28 29 30 31 32 33 34 35 36 37 38 39 40 41 42 43 44 45 46 47 48 49 50
000
ASUS43 KOAX 071210
RWRNE

WEATHER ROUNDUP FOR NEBRASKA
NATIONAL WEATHER SERVICE OMAHA NE
600 AM CST WED DEC 07 2016

NOTES: SATELLITE DATA IS BEING USED TO AUGMENT CLOUD COVER ABOVE
       12000 FEET.
       "FAIR" INDICATES FEW OR NO CLOUDS BELOW 12,000 FEET WITH NO
       SIGNIFICANT WEATHER AND/OR OBSTRUCTIONS TO VISIBILITY.

  * THESE STATIONS DO NOT REPORT WEATHER SUCH AS RAIN...SNOW OR FOG.

NEZ001>004-019>022-054>056-071300-
NEBRASKA PANHANDLE

CITY           SKY/WX    TMP DP  RH WIND       PRES   REMARKS
SCOTTSBLUFF    LGT SNOW  10   4  76 N10       30.16R WCI  -4
6HR MIN TEMP:   9; 6HR MAX TEMP:  16; 6HR PCP:  0.03;

ALLIANCE       LGT SNOW   8   3  80 N13       30.13R WCI  -8
6HR MIN TEMP:   8; 6HR MAX TEMP:  11; 6HR PCP: TRACE;

CHADRON        CLOUDY     6  -3  66 W13       30.21R WCI -10
6HR MIN TEMP:   6; 6HR MAX TEMP:  10;

KIMBALL        LGT SNOW   9   7  90 N10       30.06R WCI  -5
SIDNEY         LGT SNOW  10   5  80 N10       30.10R WCI  -4
6HR MIN TEMP:  10; 6HR MAX TEMP:  17; 6HR PCP: TRACE;

$$

NEZ057>060-069>072-079>082-071300-
SOUTHWEST NEBRASKA

CITY           SKY/WX    TMP DP  RH WIND       PRES   REMARKS
NORTH PLATTE   CLOUDY    13   1  59 N14       30.19R WCI  -2
6HR MIN TEMP:  13; 6HR MAX TEMP:  19; 6HR PCP: TRACE;

IMPERIAL       LGT SNOW  13   8  81 N13       30.14R WCI  -2
6HR MIN TEMP:  12; 6HR MAX TEMP:  22; 6HR PCP: TRACE;

LEXINGTON      LGT SNOW  15   6  67 N10       30.20S WCI   3
MCCOOK         LGT SNOW  14  10  84 NE9       30.17S FOG     WCI   2
6HR MIN TEMP:  14; 6HR MAX TEMP:  24; 6HR PCP: TRACE;

OGALLALA       LGT SNOW  14  10  81 N9        30.16R WCI   2
$$

NEZ005>010-023>029-035>040-094-071300-
NORTH CENTRAL NEBRASKA

CITY           SKY/WX    TMP DP  RH WIND       PRES   REMARKS
VALENTINE      CLOUDY     8  -3  61 NW21G28   30.20R WCI -12
6HR MIN TEMP:   6; 6HR MAX TEMP:   8;

AINSWORTH      CLOUDY     9   1  68 NW16      30.20R WCI  -8
BROKEN BOW     CLOUDY    13   2  61 NW14      30.18F WCI  -2
6HR MIN TEMP:  12; 6HR MAX TEMP:  16;

O`NEILL        CLOUDY    10   2  70 NW16      30.22R WCI  -7
ORD            CLOUDY    12   1  61 NW14      30.21R WCI  -3
6HR MIN TEMP:  12; 6HR MAX TEMP:  15;

THEDFORD       CLOUDY    10   1  66 NW14      30.19R WCI  -5
$$

NEZ041-046>049-061>064-073>077-083>087-071300-
SOUTH CENTRAL NEBRASKA

CITY           SKY/WX    TMP DP  RH WIND       PRES   REMARKS
GRAND ISLAND   CLOUDY    15   4  61 N13       30.22S WCI   1
6HR MIN TEMP:  15; 6HR MAX TEMP:  21;

AURORA         CLOUDY    16   5  63 N16G22    30.21S WCI   0
HASTINGS       CLOUDY    16   5  62 N14       30.23R WCI   2
6HR MIN TEMP:  16; 6HR MAX TEMP:  23;

HEBRON         CLOUDY    20   8  59 N14G20    30.23R WCI   7
HOLDREGE       LGT SNOW  15  10  79 N7        30.20S WCI   5
KEARNEY *      CLOUDY    16   1  53 N13       30.22R WCI   2
YORK           CLOUDY    16   7  67 N14       30.22R WCI   1
$$

NEZ011>018-030>034-042>045-071300-
NORTHEAST NEBRASKA

CITY           SKY/WX    TMP DP  RH WIND       PRES   REMARKS
NORFOLK        CLOUDY    12   2  64 NW16      30.20R WCI  -5
6HR MIN TEMP:  11; 6HR MAX TEMP:  15;

ALBION         CLOUDY    13   3  65 NW16G22   30.21R WCI  -4
BLAIR          CLOUDY    16   8  72 NW9       30.21R WCI   4
FREMONT        PTCLDY    15   8  73 NW10      30.24R WCI   3
TEKAMAH        PTCLDY    15   6  67 NW14      30.25R WCI   0
6HR MIN TEMP:  15; 6HR MAX TEMP:  20;

WAYNE          CLOUDY    12   5  73 NW14G21   30.20F WCI  -3
$$

NEZ050>053-065>068-078-088>093-071300-
SOUTHEAST NEBRASKA

CITY           SKY/WX    TMP DP  RH WIND       PRES   REMARKS
LINCOLN        CLOUDY    19   8  62 N13       30.25R WCI   6
6HR MIN TEMP:  18; 6HR MAX TEMP:  25;

OMAHA EPPLEY   CLOUDY    17   7  64 NW12      30.23R WCI   4
6HR MIN TEMP:  17; 6HR MAX TEMP:  22;

BEATRICE       CLOUDY    22  11  62 N14       30.22R WCI  10
FALLS CITY     CLOUDY    24  14  65 N6        30.21R WCI  17
6HR MIN TEMP:  24; 6HR MAX TEMP:  27;

NEBRASKA CITY  CLOUDY    20   6  55 NW10      30.22R WCI   9
PLATTSMOUTH    PTCLDY    18   8  63 NW13      30.21R WCI   5
$$

NEZ044-045-051>053-067-071300-
OMAHA AREA

CITY           SKY/WX    TMP DP  RH WIND       PRES   REMARKS
OMAHA EPPLEY   CLOUDY    17   7  64 NW12      30.23R WCI   4
6HR MIN TEMP:  17; 6HR MAX TEMP:  22;

BLAIR          CLOUDY    16   8  72 NW9       30.21R WCI   4
FREMONT        PTCLDY    15   8  73 NW10      30.24R WCI   3
MILLARD        PTCLDY    19   9  65 NW9       30.24R WCI   7
OFFUTT AFB     PTCLDY    18   8  65 NW13      30.22R WCI   5
PLATTSMOUTH    PTCLDY    18   8  63 NW13      30.21R WCI   5
WAHOO          FAIR      17   8  69 NW12      30.23R WCI   4
$$



USA.gov is the U.S. government's official web portal to all federal, state and local government web resources and services.